#timestamp,LO_Frequency,Hit,StdDev 
1622119155.6,286046972.6,P
1622119175.5,286046971.9,P
1622119195.3,286046970.4,P
1622119215.1,286046970.0,Y
1622119235.9,286046997.2,P
1622119255.7,286046997.0,N
1622119275.6,286046996.5,N
1622119295.4,286046996.7,N
1622119315.2,286046997.5,N
1622119335.1,286046999.5,N
1622119336.0,286046999.5,N
1622119355.8,286047000.1,N
1622119375.6,286046998.2,N
1622119395.5,286047002.4,N
1622119415.3,286047002.8,N
1622119435.2,286047000.0,N
1622119455.9,286046998.6,N
1622119475.7,286046996.6,N
1622119495.6,286046995.8,N
1622119515.4,286046996.0,N
1622119535.2,286046993.7,N
1622119555.1,286046994.7,N
1622119556.0,286046994.7,N
1622119575.8,286046992.4,N
1622119595.7,286046992.3,N
1622119615.5,286046992.2,N
1622119635.3,286046994.6,N
1622119655.2,286046993.9,N
1622119675.0,286046992.1,N
1622119675.9,286046992.1,N
1622119695.7,286046994.4,N
1622119715.6,286046994.3,N
1622119735.4,286046994.1,N
1622119755.3,286046993.5,N
1622119775.1,286046995.9,N
1622119776.0,286046995.9,N
1622119795.8,286046995.9,N
1622119815.7,286046996.4,N
1622119835.5,286046992.2,N
1622119855.4,286046990.1,Y
1622119875.2,286046996.4,P
1622119895.0,286046996.0,P
1622119895.9,286046996.0,P
1622119915.8,286046996.2,Y
1622119935.6,286046999.0,P
1622119955.5,286046998.3,N
1622119975.3,286047000.8,N
1622119995.1,286046996.6,N
1622120015.9,286046998.1,N
1622120035.7,286046998.6,N
1622120055.6,286046999.1,N
1622120075.4,286046996.8,N
1622120095.2,286046997.6,N
1622120115.1,286046995.6,Y
1622120116.0,286046995.6,P
1622120135.8,286046997.3,N
1622120155.7,286046995.1,P
1622120175.5,286046995.9,Y
1622120195.3,286046996.9,P
1622120215.2,286046997.0,P
1622120235.0,286046996.8,P
1622120235.9,286046996.8,Y
1622120255.7,286047001.1,P
1622120275.6,286047000.4,N
1622120295.4,286047000.9,N
1622120315.3,286046998.5,N
1622120335.1,286047000.3,N
1622120336.0,286047000.3,N
1622120355.8,286046999.0,N
1622120375.7,286046998.7,N
1622120395.5,286046999.0,N
